Location: Killam
(52.7910°N, 111.8608°W)
Time: 03:19:17
(UTC+00:00)

Oscar 11 - Pass Details

Date: 14 March 2026
Orbit: 590 x 602 km, 97.8° (Epoch: 13 April)

Event Time Altitude Azimuth Distance (km) Brightness Sun altitude
Rises 12:37:54 0° 3° (N) 2,844 10.6 -10.8°
Reaches altitude 10° 12:40:36 10° 345° (NNW) 1,935 9.6 -10.3°
Maximum altitude 12:43:27 18° 302° (WNW) 1,475 8.6 -9.9°
Enters shadow 12:45:35 13° 267° (W) 1,742 8.7 -9.6°
